www.pogodaiklimat.ru

Погода и климат >> Архив погоды >> Бангладеш >> Джессор


ПОГОДА в Джессоре

  • Прогноз погоды в Джессоре
  • Монитор погоды в Джессоре

АРХИВ ПОГОДЫ в Джессоре

Время (UTC), дата Ветер
(напр.,м/с)
 
Видим.   Явления Облачность Т
(С)
Тd
(С)
f
(%)
Тe
(С)
Тes
(С)
Комфортность P
(гПа)
Po
(гПа)
Тmin
(С)
Tmax
(С)
R
(мм)
R24
(мм)
S
(см)
03 9.06 штиль 0 2000 м мгла 8/5 240 м
[St Ac trans]
+30.0 +26.0 79 +45 +50 опасность
перегрева
1003.4 1002.7 +26.6
06 9.06 штиль 0 3500 м мгла 8/4 240 м
[St Ac trans]
+34.2 +25.0 59 +48 +59 опасность
перегрева
1002.1 1001.4
09 9.06 З 2 4000 м мгла 6/5 240 м
[St Ac trans]
+35.8 +28.0 64 +56 +62 опасность
перегрева
1000.2 999.6
12 9.06 штиль 0 4000 м мгла 6/5 240 м
[St Ac trans]
+33.0 +28.0 75 +54 +54 опасность
перегрева
998.8 998.2 +36.0
15 9.06 В 2 4000 м мгла 5/3 450 м
[Cu Sc Ac trans]
+30.0 +26.0 79 +45 +45 опасность
перегрева
1001.3 1000.6
18 9.06 штиль 0 3000 м мгла 3/3 450 м
[Sc]
+28.8 +26.0 85 +43 +43 опасность
перегрева
1001.7 1001.0
21 9.06 Ю 2 2000 м мгла 3/3 450 м
[Sc Ac trans]
+27.2 +25.0 88 +39 +39 очень
душно
1000.5 999.8
00 10.06 штиль 0 2000 м мгла 3/3 450 м
[Sc Ac trans]
+27.0 +25.0 89 +39 +39 очень
душно
1001.5 1000.8
03 10.06 ЮЗ 2 3000 м мгла 4/4 450 м
[Cu Sc]
+31.6 +27.0 77 +50 +58 опасность
перегрева
1001.8 1001.1 +27.0
06 10.06 ЮЗ 2 3500 м мгла 4/4 450 м
[Cu Sc]
+36.2 +28.0 63 +57 +71 опасность
перегрева
1000.8 1000.2
09 10.06 Ю 2 6000 м мгла 4/4 450 м
[Cu Sc]
+37.2 +26.0 53 +53 +61 опасность
перегрева
999.1 998.4
12 10.06 Ю 2 6000 м мгла 3/3 450 м
[Sc]
+35.0 +27.0 63 +53 +53 опасность
перегрева
998.3 997.6 +37.4
15 10.06 Ю 2 5000 м мгла 3/3 450 м
[Sc]
+30.4 +26.0 77 +45 +45 опасность
перегрева
1000.2 999.6
18 10.06 Ю 2 5000 м мгла 3/3 450 м
[Sc As trans Ci fib]
+28.8 +26.0 85 +43 +43 опасность
перегрева
1000.3 999.6
18 11.06 Ю 2 5000 м мгла 3/3 450 м
[Sc Ac trans]
+30.0 +26.0 79 +45 +45 опасность
перегрева
1000.7 1000.1
06 12.06 ЮВ 3 5000 м мгла 4/4 450 м
[Sc]
+36.2 +26.0 56 +52 +63 опасность
перегрева
1001.0 1000.3
12 12.06 Ю 2 5000 м мгла 3/3 450 м
[Sc]
+35.4 +27.0 62 +53 +54 опасность
перегрева
998.3 997.6 +37.8
15 12.06 штиль 0 5000 м мгла 4/4 450 м
[Sc]
+31.6 +27.0 77 +50 +50 опасность
перегрева
999.2 998.5
18 12.06 З 5 3000 м мгла {дождь} 9/5 240 м
[St Ac trans]
+27.8 +26.0 90 +42 +42 опасность
перегрева
1001.2 1000.5 1
21 12.06 штиль 0 3000 м мгла 8/5 450 м
[Cu Sc Ac trans]
+27.0 +25.0 89 +39 +39 очень
душно
999.8 999.1
06 13.06 СЗ 2 5000 м мгла 1/0
[Ac trans]
+36.2 +25.0 53 +50 +72 опасность
перегрева
1000.1 999.5
09 13.06 З 2 5000 м мгла 4/3 450 м
[Sc Ac trans]
+37.4 +26.0 52 +52 +61 опасность
перегрева
997.6 996.9
12 13.06 штиль 0 5000 м мгла 3/1 450 м
[Sc Ac trans]
+35.6 +27.0 61 +53 +54 опасность
перегрева
996.7 996.0 +37.6
15 13.06 штиль 0 5000 м мгла 1/0
[Ac trans]
+31.4 +28.0 82 +52 +52 опасность
перегрева
998.5 997.9
18 13.06 штиль 0 5000 м мгла 1/0
[Ac trans]
+28.4 +26.0 87 +43 +43 опасность
перегрева
998.0 997.3
21 13.06 штиль 0 5000 м мгла 3/0
[Ac trans]
+26.8 +25.0 90 +39 +39 очень
душно
997.3 996.6
00 14.06 штиль 0 2000 м мгла 1/0
[Ac trans]
+26.8 +25.0 90 +39 +39 очень
душно
998.2 997.5
03 14.06 Ю 2 4000 м мгла 4/3 450 м
[Sc Ac trans]
+32.0 +25.0 67 +46 +54 опасность
перегрева
999.1 998.5 +26.4
06 14.06 ЮЗ 2 6000 м мгла 3/3 450 м
[Sc]
+37.4 +26.0 52 +52 +69 опасность
перегрева
998.9 998.2
09 14.06 ЮВ 2 6000 м мгла 3/3 450 м
[Sc Ac trans]
+37.0 +28.0 60 +57 +67 опасность
перегрева
996.3 995.6
12 14.06 В 2 6000 м мгла 5/1 450 м
[Sc Ac trans]
+35.4 +27.0 62 +53 +54 опасность
перегрева
996.1 995.4 +37.8
15 14.06 Ю 3 5000 м мгла 4/0
[Ac trans]
+31.6 +28.0 81 +52 +52 опасность
перегрева
998.4 997.7
18 14.06 ЮЗ 3 5000 м мгла 4/0
[Ac trans]
+30.0 +27.0 84 +47 +47 опасность
перегрева
999.2 998.5
21 14.06 Ю 3 5000 м мгла 4/0
[Ac trans]
+28.2 +26.0 88 +42 +42 опасность
перегрева
997.7 997.0
00 15.06 штиль 0 2000 м мгла 4/0
[Ac trans]
+27.8 +26.0 90 +42 +42 опасность
перегрева
998.0 997.3
03 15.06 ЮЗ 2 4000 м мгла 3/3 450 м
[Sc]
+32.2 +27.0 74 +50 +59 опасность
перегрева
998.8 998.2 +27.6
06 15.06 ЮЗ 5 4000 м мгла 6/1 450 м
[Cu Sc Ac trans]
+35.6 +27.0 61 +53 +61 опасность
перегрева
998.9 998.2
09 15.06 ЮЗ 6 4000 м мгла 6/4 450 м
[Cu Sc Ac trans]
+36.4 +26.0 55 +52 +54 опасность
перегрева
998.1 997.4
12 15.06 Ю 3 3000 м мгла 8/5 240 м
[St Ac trans]
+31.0 +26.0 75 +46 +47 опасность
перегрева
997.6 996.9 +36.6
15 15.06 Ю 5 3000 м мгла 6/3 450 м
[Cu Sc Ac trans]
+30.0 +28.0 89 +50 +50 опасность
перегрева
998.6 997.9
18 15.06 ЮЗ 3 3000 м мгла 6/3 450 м
[Cu Sc Ac trans]
+28.6 +27.0 91 +45 +45 опасность
перегрева
999.3 998.6
21 15.06 ЮЗ 3 2000 м мгла 6/3 450 м
[Cu Sc Ac trans]
+27.8 +26.0 90 +42 +42 опасность
перегрева
998.0 997.3

 

Местоположение метеостанции Джессор (Бангладеш): широта 23.18 долгота 89.17 высота над уровнем моря 7 м.

В архиве по умолчанию представлена погода в Джессоре за последнюю неделю. Архивные данные за месяц целиком и за предыдущие месяцы, начиная с января 2011 года, Вы можете получить, выбрав интересующий диапазон дат из раскрывающегося списка и нажав кнопку "Ввод!".


*Определитесь, кто Вы:
робот инопланетянин человек

Внимание! Время в таблицах - всемирное. Для получения местного времени необходимо прибавить поправку, которая равна 6.5 ч.

Смотрите также архив погоды в соседних городах и на ближайших метеорологических станциях:

Погода в Кумархали (Бангладеш) (38 км)
Погода в Саткхире (Бангладеш) (52 км)
Погода в Кхулне (Бангладеш) (58 км)
Погода в Чуаданге (Бангладеш) (63 км)
Погода в Бейсирхэте (Западная Бенгалия, Индия) (66 км)
Погода в Гопалгандж-Садаре (Бангладеш) (69 км)
Погода в Кришнанагаре (Западная Бенгалия, Индия) (71 км)
Погода в Монгле (Бангладеш) (73 км)
Погода в Фаридпуре (Бангладеш) (84 км)
Погода в Багати (Западная Бенгалия, Индия) (85 км)

Пояснения к столбцам:

Ветер - указаны скорость ветра в м/с - средняя за 10 мин, порывы в срок и между сроками (в фигурных скобках) и направление, откуда дует ветер: С - северный, СВ - северо-восточный, В - восточный, ЮВ - юго-восточный, Ю - южный, ЮЗ - юго-западный, З - западный, СЗ - северо-западный.
Видимость - горизонтальная дальность видимости в метрах или километрах. При видимости от 1 до 10 км при отсутствии осадков обычно наблюдается дымка, при ухудшении видимости до 1 км и менее - туман. В сухую погоду видимость может ухудшаться дымом, пылью или мглою.
Явления - указаны атмосферные явления, наблюдавшиеся в срок или в последний час перед сроком; фигурными скобками обозначены явления, наблюдавшиеся между сроками (за 1-3 часа до срока); квадратными скобками обозначены град или гололедные отложения с указанием их диаметра в мм.
Облачность - указаны через наклонную черту общая и нижняя облачность в баллах и высота нижней границы облаков в метрах; квадратными скобками обозначены формы облаков: Ci - перистые, Cs - перисто-слоистые, Cc - перисто-кучевые, Ac - высококучевые, As - высокослоистые, Sc - слоисто-кучевые, Ns - слоисто-дождевые, Cu - кучевые, Cb - кучево-дождевые. Подробнее классификацию облаков см. в Атласе облаков (PDF).
T - Температура воздуха - температура, измеренная на высоте 2 м над землей.
Td - Температура точки росы - температура, при понижении до которой содержащийся в воздухе водяной пар достигнет насыщения.
f - Относительная влажность воздуха - влажноcть воздуха, измеренная на высоте 2 м над землей.
Te - Эффективная температура - температура, которую ощущает одетый по сезону человек в тени. Характеристика душности погоды. При расчете учитывается влияние влажности воздуха и скорости ветра на теплоощущения человека.
Tes - Эффективная температура на солнце - температура, которую ощущает человек, с поправкой на солнечный нагрев. Характеристика знойности погоды. Зависит от высоты солнца над горизонтом, облачности и скорости ветра. Ночью, в пасмурную погоду, а также при ветре 12 м/с и более поправка равна нулю.
P - Атмосферное давление - приведенное к уровню моря атмосферное давление.
Po - Атмосферное давление - измеренное на уровне метеостанции атмосферное давление.
Tmin - Минимальная температура - минимум температуры воздуха на высоте 2 м над землей.
Tmax - Максимальная температура - максимум температуры воздуха на высоте 2 м над землей.
R - Количество осадков - Количество выпавших осадков за период времени, мм. При наведении курсора мыши на число - период времени, за который выпало указанное количество осадков.
R24 - Количество осадков - Количество выпавших осадков за 24 часа, мм.
S - Снежный покров - Высота снежного покрова, см. При наведении курсора мыши на число - состояние снежного покрова и степень покрытия местности в баллах.